Mount Holly, NJ

9:50 PM EDT on July 25, 2017 (GMT -0400)
South Jersey Regional

Weather History for KVAY - February, 2013

Change the Weather History Date:

Thursday, February 14, 2013

  Actual Average (KPNE) Record (KPNE)
Temperature  
Mean Temperature 38 °F -  
Max Temperature 46 °F 41 °F 59 °F (2011)
Min Temperature 30 °F 25 °F 7 °F (2016)
Degree Days  
Heating Degree Days 27    
Moisture  
Dew Point 31 °F    
Average Humidity 88    
Maximum Humidity 100    
Minimum Humidity 50    
Precipitation  
Precipitation 0.15 in - - ()
Sea Level Pressure  
Sea Level Pressure 29.89 in    
Wind  
Wind Speed 2 mph (West)    
Max Wind Speed 6 mph    
Max Gust Speed -    
Visibility 4 miles    
Events Fog , Snow    
Averages and records for this station are not official NWS values.
T = Trace of Precipitation, MM = Missing Value Source: NWS Daily Summary

Daily Weather History Graph

Daily Weather History Graph

Search for Another Location

Airport or City:

Trip Planner

Search our weather history database for the weather conditions in past years. The results will help you decide how hot, cold, wet, or windy it might be!

Date:

Astronomy

Feb. 14, 2013 Rise Set
Actual Time 6:53 AM EST 5:34 PM EST
Civil Twilight 6:25 AM EST 6:02 PM EST
Nautical Twilight 5:53 AM EST 6:34 PM EST
Astronomical Twilight 5:22 AM EST 7:05 PM EST
Moon 8:54 AM EST (2/14) 10:34 PM EST (2/14)
Length of Visible Light 11h 36m
Length of Day
10h 41m
Waxing Crescent, 21% of the Moon is Illuminated
Feb 14
Waxing Crescent
Feb 17
First Quarter
Feb 25
Full
Mar 4
Last Quarter
Mar 11
New

Hourly Weather History & Observations

Time (EST) Temp. Windchill Dew Point Humidity Pressure Visibility Wind Dir Wind Speed Gust Speed Precip Events Conditions
12:34 AM 33.8 °F 29.6 °F 32.0 °F 93% 29.73 in 2.0 mi NNW 4.6 mph - 0.01 in Snow Light Snow
12:54 AM 33.1 °F 28.7 °F 32.0 °F 96% 29.74 in 2.5 mi NNW 4.6 mph - 0.02 in Snow Light Snow
1:25 AM 33.8 °F - 32.0 °F 93% 29.75 in 1.8 mi Calm Calm - 0.01 in Snow Light Snow
1:35 AM 33.8 °F - 32.0 °F 93% 29.75 in 2.5 mi Calm Calm - 0.02 in   Overcast
1:49 AM 33.8 °F 30.8 °F 32.0 °F 93% 29.77 in 3.0 mi WNW 3.5 mph - 0.02 in   Overcast
2:05 AM 33.8 °F 28.6 °F 32.0 °F 93% 29.78 in 3.0 mi NW 5.8 mph - N/A   Overcast
2:35 AM 33.8 °F - 32.0 °F 93% 29.79 in 4.0 mi Calm Calm - 0.02 in   Overcast
2:54 AM 33.1 °F - 30.9 °F 92% 29.80 in 4.0 mi Calm Calm - 0.02 in   Overcast
3:35 AM 33.8 °F - 32.0 °F 93% 29.81 in 3.0 mi Calm Calm - 0.02 in   Overcast
3:43 AM 33.8 °F 30.8 °F 32.0 °F 93% 29.81 in 4.0 mi WNW 3.5 mph - 0.02 in   Overcast
3:54 AM 33.1 °F 30.0 °F 32.0 °F 96% 29.82 in 4.0 mi West 3.5 mph - 0.03 in   Overcast
4:09 AM 33.8 °F - 32.0 °F 93% 29.82 in 4.0 mi Calm Calm - 0.01 in   Overcast
4:54 AM 33.1 °F - 32.0 °F 96% 29.84 in 2.5 mi Calm Calm - 0.02 in   Overcast
5:10 AM 33.8 °F - 32.0 °F 93% 29.85 in 3.0 mi Calm Calm - 0.01 in   Overcast
5:21 AM 33.8 °F - 32.0 °F 93% 29.85 in 2.5 mi Calm Calm - 0.01 in   Overcast
5:54 AM 33.1 °F - 32.0 °F 96% 29.87 in 2.0 mi Calm Calm - 0.02 in   Overcast
6:02 AM 32.0 °F - 30.2 °F 93% 29.88 in 1.5 mi Calm Calm - N/A   Overcast
6:20 AM 32.0 °F - 30.2 °F 93% 29.89 in 1.2 mi Calm Calm - N/A   Scattered Clouds
6:29 AM 30.2 °F - 30.2 °F 100% 29.89 in 1.0 mi Calm Calm - N/A   Mist
6:36 AM 30.2 °F - 30.2 °F 100% 29.90 in 0.8 mi Calm Calm - N/A   Mist
6:47 AM 30.2 °F - 30.2 °F 100% 29.90 in 1.2 mi Calm Calm - N/A   Partly Cloudy
6:51 AM 30.2 °F - 30.2 °F 100% 29.90 in 0.8 mi Calm Calm - N/A   Mist
6:54 AM 30.9 °F - 30.0 °F 96% 29.90 in 0.5 mi Calm Calm - N/A Fog Light Freezing Fog
7:07 AM 30.2 °F - 30.2 °F 100% 29.90 in 0.5 mi Calm Calm - N/A Fog Light Freezing Fog
7:19 AM 30.2 °F 26.7 °F 30.2 °F 100% 29.91 in 1.0 mi SW 3.5 mph - N/A   Mist
7:28 AM 30.2 °F - 30.2 °F 100% 29.92 in 0.8 mi Calm Calm - N/A   Clear
7:35 AM 32.0 °F 28.7 °F 30.2 °F 93% 29.92 in 1.2 mi WSW 3.5 mph - N/A   Clear
7:54 AM 32.0 °F 28.7 °F 30.9 °F 96% 29.94 in 1.0 mi WSW 3.5 mph - N/A   Clear
8:02 AM 32.0 °F 28.7 °F 30.2 °F 93% 29.94 in 1.5 mi WSW 3.5 mph - N/A   Clear
8:27 AM 33.8 °F 30.8 °F 32.0 °F 93% 29.95 in 2.0 mi West 3.5 mph - 0.01 in   Clear
8:52 AM 35.6 °F 32.8 °F 33.8 °F 93% 29.95 in 3.0 mi Variable 3.5 mph - 0.03 in   Clear
8:54 AM 35.1 °F 31.0 °F 33.1 °F 92% 29.95 in 3.0 mi WNW 4.6 mph - 0.03 in   Clear
9:54 AM 37.9 °F 33.5 °F 32.0 °F 79% 29.97 in 6.0 mi Variable 5.8 mph - 0.01 in   Haze
10:54 AM 39.9 °F 37.8 °F 30.0 °F 68% 29.98 in 9.0 mi WNW 3.5 mph - N/A   Clear
11:54 AM 43.0 °F - 28.9 °F 58% 29.98 in 10.0 mi Calm Calm - N/A   Clear
12:54 PM 44.1 °F 42.5 °F 28.0 °F 53% 29.96 in 10.0 mi Variable 3.5 mph - N/A   Clear
1:54 PM 46.0 °F 43.1 °F 28.9 °F 51% 29.96 in 10.0 mi Variable 5.8 mph - N/A   Partly Cloudy
2:54 PM 46.0 °F - 28.0 °F 50% 29.96 in 10.0 mi Calm Calm - N/A   Mostly Cloudy
3:54 PM 46.0 °F 44.8 °F 28.9 °F 51% 29.97 in 10.0 mi SSW 3.5 mph - N/A   Partly Cloudy
6:54 PM 37.9 °F - 30.0 °F 73% 30.00 in 8.0 mi Calm Calm - N/A   Clear
8:54 PM 36.0 °F - 28.9 °F 76% 30.02 in 7.0 mi Calm Calm - N/A   Clear
9:54 PM 35.1 °F 32.2 °F 28.9 °F 78% 30.03 in 7.0 mi South 3.5 mph - N/A   Clear
11:54 PM 30.9 °F 26.2 °F 28.9 °F 92% 30.03 in 3.0 mi South 4.6 mph - N/A   Clear